NOAA 16 DEB, 41532

Orbit data source: Space-Track

NOAA 16 DEB, 41532 is space debris in SSO originally from a launch on Thu, 21 Sep 2000 UTC launched from the Air Force Western Test Range (AFWTR). Debris objects in space refer to the collection of defunct objects orbiting the Earth. Examples of debris include non-operational satellites, rocket bodies, and fragments generated from explosions, collisions, or faulty payload assembly.

Loading next visibility...
Identifier
41532, 2000-055NG
Orbit
SSO
Country
Flag of USUS
Related business
Manufacturer
Unknown
Mission
Spacecraft
Bus & Motor
Unknown
Mass
Unknown
Launch date (UTC)
2000-09-21 (25 years ago)
Launch vehicle
Unknown
Launch site
Air Force Western Test Range (AFWTR)
Object type
Payload
Rocket body
Debris
Shape & HBR
Unknown shape, 0.1 m
Radar Cross Section
Small (<0.1 m²)

Expand to show TLE details & history
Last TLE update: 21 hours ago

TLE from 21 hours ago
0 NOAA 16 DEB
1 41532U 00055NG  25286.70264308  .00006824  00000-0  25715-2 0  9990
2 41532  98.7403  20.3188 0012311 168.2920 191.8552 14.31689101490992
Epoch: 2025-10-13T16:51Z
TLE epoch observation values (Epoch: 2025-10-13T16:51:48.362Z)
Latitude
0.00006°
Longitude
104.86566°
Altitude
797.654 km
Speed
7.45 km/s
True Right ascension
01h 21m 16s
True Declination
0° 00' 00"
Sunlit
Object was in full shadow at epoch
Visualization orbit readout
Latitude
Unknown
Longitude
Unknown
Altitude
Unknown
Speed
Unknown
Apparent Right ascension
Unknown
Apparent Declination
Unknown
Sunlit
N/A
Visualization observer readout
Local Sidereal Time
08:47:01
Azimuth
Unknown
Elevation
Unknown
Doppler factor
Unknown
Orbital elements
Apogee altitude
792.051 km
Perigee altitude
774.418 km
Semi-major axis
7,161.372 km
Eccentricity
0.00123
Inclination
98.7403°
RAAN
20.3188°
Arg. of periapsis
168.292°
True anomaly
191.82626°
Mean anomaly
191.8552°
Eccentric anomaly
191.84073°
Mean motion
3.58137 °/min
Orbital period
100.52 mins
BSTAR
0.0025715
Loading maneuver chart data...
Computing Atmospheric mass density...

Documentation

Showing up to 5 results
|